Location: Newark
(7.0858°N, 171.3717°E)
Time: 09:59:53
(UTC+00:00)

Hubble Space Telescope - Visible Passes

Search period start: 20 August 2019 00:00
Search period end: 30 August 2019 00:00
Orbit: 536 x 540 km, 28.5° (Epoch: 19 August)

Date Brightness Start Highest point End Pass type
(mag) Time Alt. Az. Time Alt. Az. Time Alt. Az.
23 Aug 3.5 08:33:29 10° N 08:33:53 11° N 08:33:53 11° N visible
24 Aug 3.1 08:22:12 10° NNW 08:23:54 15° N 08:23:54 15° N visible
25 Aug 2.6 08:11:10 10° NNW 08:13:58 20° NNE 08:13:58 20° NNE visible
26 Aug 2.1 08:00:16 10° NNW 08:03:45 26° NNE 08:04:05 26° NE visible
27 Aug 1.7 07:49:28 10° NW 07:53:15 35° NNE 07:54:16 30° ENE visible
28 Aug 1.2 07:38:45 10° NW 07:42:44 49° NNE 07:44:31 28° E visible
29 Aug 0.8 07:28:07 10° NW 07:32:13 70° NNE 07:34:50 21° ESE visible
